Regional Weather Roundup
Issued by NWS

Home | Current Version | Previous Version | Text Only | Print | Product List | Glossary Off
Versions: 1 2 3 4 5 6 7 8 9 10 11 12 13 14 15 16 17 18 19 20 21 22 23 24 25 26 27 28 29 30 31 32 33 34 35 36 37 38 39 40 41 42 43 44 45 46 47 48 49 50

000
ASUS43 KDMX 251206
RWRIA

WEATHER ROUNDUP FOR IOWA
NATIONAL WEATHER SERVICE DES MOINES IA
600 AM CST SAT FEB 25 2017

NOTE: "FAIR" INDICATES FEW OR NO CLOUDS BELOW 12,000 FEET WITH NO
SIGNIFICANT WEATHER AND/OR OBSTRUCTIONS TO VISIBILITY.

* - THESE STATIONS ARE NOT NWS STATIONS...THUS NOT UNDER NWS
QUALITY CONTROL.  THEY ALSO DO NOT REPORT WEATHER SUCH
AS PRECIPITATION OR FOG.

IAZ001>003-012>014-020>022-031>034-043>046-251300-
   NORTHWEST IOWA

CITY           SKY/WX    TMP DP  RH WIND       PRES   REMARKS
CARROLL *      PTCLDY    18  14  86 NW17G23   30.02S WCI   2
CHEROKEE *     CLEAR     13  11  90 NW7       30.05R WCI   3
DENISON *      CLEAR     16  12  86 NW10      30.04R WCI   3
LE MARS *      PTCLDY    12  10  92 NW3       30.08S
SHELDON *      CLEAR     14  14 100 W8        30.02R WCI   3
SIOUX CITY     CLOUDY    13  10  88 NW8       30.10R WCI   2
6HR MIN TEMP:  13; 6HR MAX TEMP:  21;

SPENCER        CLEAR     10   6  84 NW10      30.01R WCI  -4
6HR MIN TEMP:  10; 6HR MAX TEMP:  18;

STORM LAKE *   CLEAR     14  10  85 NW16      30.02R WCI  -2
$$

IAZ055>058-069>071-079>083-090>094-251300-
   SOUTHWEST IOWA

CITY           SKY/WX    TMP DP  RH WIND       PRES   REMARKS
ATLANTIC *     CLEAR     18  14  86 NW13      30.06R WCI   4
AUDUBON *      CLEAR     16  12  86 NW8       30.03R WCI   5
CLARINDA *     CLEAR     18  14  86 NW10      30.12R WCI   6
COUNCIL BLFS * CLEAR     18  16  93 NW10      30.09R WCI   6
CRESTON *      CLEAR     14  10  85 NW13      30.03F WCI   0
HARLAN  *      CLEAR     16  14  93 NW14      30.09R WCI   1
LAMONI         CLEAR     16  11  80 NW13      30.02S WCI   2
6HR MIN TEMP:  16; 6HR MAX TEMP:  23;

RED OAK *      PTCLDY    18  14  86 NW9       30.09R WCI   6
SHENANDOAH *   CLEAR     16  14  93 CALM      30.12R
$$

IAZ047>049-059>061-072>074-084-251300-
   CENTRAL IOWA

CITY           SKY/WX    TMP DP  RH WIND       PRES   REMARKS
AMES           CLEAR     16  11  80 NW15      29.99R WCI   1
6HR MIN TEMP:  16; 6HR MAX TEMP:  21; 6HR PCP: TRACE;

ANKENY *       CLEAR     16  10  79 NW13G18   30.02R WCI   2
BOONE *        CLEAR     14   9  79 NW16      29.98R WCI  -2
CHARITON *     CLOUDY    16  12  86 NW16      30.00R WCI   0
DES MOINES     MOCLDY    18  10  71 NW13G24   30.01R WCI   5
6HR MIN TEMP:  18; 6HR MAX TEMP:  22;

GRINNELL*      CLEAR     16  11  82 NW16      29.97R WCI   0
KNOXVILLE *    CLOUDY    18  10  73 NW15      29.98R WCI   3
MARSHALLTOWN   CLEAR     15  10  80 NW18      29.95R WCI  -2
6HR MIN TEMP:  15; 6HR MAX TEMP:  20;

NEWTON *       CLEAR     16  10  79 NW14G22   29.97R WCI   1
PELLA *        CLEAR     17  12  81 NW13      30.00R WCI   3
PERRY *          N/A     15  12  86 NW10      30.01F WCI   2
$$

IAZ004>006-015-016-023>025-035-036-251300-
   NORTH CENTRAL IOWA

CITY           SKY/WX    TMP DP  RH WIND       PRES   REMARKS
ALGONA *       FLURRIES  12   7  79 NW12      29.97R WCI  -2
CLARION *      CLEAR     12   7  79 NW15      29.97R WCI  -4
ESTHERVILLE    CLEAR     12   6  77 NW16      29.98R WCI  -5
6HR MIN TEMP:  12; 6HR MAX TEMP:  16;

FORT DODGE *   CLEAR     10   3  72 NW7       30.00R WCI   0
MASON CITY     CLEAR     12   8  84 NW21      29.93S WCI  -7
6HR MIN TEMP:  12; 6HR MAX TEMP:  17;

FOREST CITY *    N/A     12   9  85 NW15      29.93R WCI  -4
WEBSTER CITY * CLEAR     12   7  79 NW14      29.97R WCI  -3
IOWA FALLS *     N/A     16  11  82 NW21G28   29.94S WCI  -2
$$

IAZ007>011-017>019-026>030-037>042-050>054-066-251300-
   NORTHEAST IOWA

CITY           SKY/WX    TMP DP  RH WIND       PRES   REMARKS
CEDAR RAPIDS   CLEAR     16  12  84 NW18      29.89R WCI   0
6HR MIN TEMP:  16; 6HR MAX TEMP:  22; 6HR PCP: TRACE;

CHARLES CITY * CLEAR     14   9  79 NW17      29.90R WCI  -3
CLINTON *      MOCLDY    20  15  81 NW17      29.85R WCI   5
DECORAH *      CLOUDY    14   7  73 NW16G28   29.84R WCI  -2
DUBUQUE        PTCLDY    17  10  74 NW18G28   29.81R WCI   1
6HR MIN TEMP:  17; 6HR MAX TEMP:  22; 6HR PCP: TRACE;

MONTICELLO *   CLOUDY    18  10  73 NW15G25   29.86R WCI   3
OELWEIN *      CLEAR     16  10  79 NW20G26   29.87S WCI  -1
WATERLOO       CLEAR     16  10  77 NW16G24   29.90R WCI   1
6HR MIN TEMP:  16; 6HR MAX TEMP:  22;

$$

IAZ064-065-067-068-078-251300-
   EAST CENTRAL IOWA

CITY           SKY/WX    TMP DP  RH WIND       PRES   REMARKS
DAVENPORT      CLEAR     20  13  74 NW18      29.86R WCI   5
6HR MIN TEMP:  20; 6HR MAX TEMP:  26; 6HR PCP: TRACE;

IOWA CITY      CLEAR     19  11  70 NW14      29.94R WCI   6
6HR MIN TEMP:  19; 6HR MAX TEMP:  25; 6HR PCP: TRACE;

MUSCATINE *    PTCLDY    21  12  68 NW17      29.93R WCI   7
QUAD CITIES    PTCLDY    23  13  65 NW20G26   29.87R WCI   8
6HR MIN TEMP:  23; 6HR MAX TEMP:  29; 6HR PCP: TRACE;

$$

IAZ062-063-075>077-085>089-095>099-251300-
   SOUTHEAST IOWA

CITY           SKY/WX    TMP DP  RH WIND       PRES   REMARKS
BURLINGTON     PTCLDY    20  13  74 NW16G24   29.92R WCI   6
6HR MIN TEMP:  20; 6HR MAX TEMP:  27; 6HR PCP: TRACE;

FAIRFIELD *    CLEAR     19  12  73 NW15G28   29.95R WCI   5
KEOKUK *       CLEAR     21  14  73 NW16      29.96R WCI   7
CENTERVILLE *    N/A     16  14  93 W14       30.01R WCI   1
OTTUMWA        CLEAR     18  12  77 NW16      29.97R WCI   3
6HR MIN TEMP:  18; 6HR MAX TEMP:  25;

WASHINGTON *   CLEAR     18  14  86 W15G23    29.95R WCI   3
$$

ABBREVIATIONS USED IN REMARKS
   TC - TEMPERATURES IN CELSIUS
  WCI - WIND CHILL INDEX
   HX - HEAT INDEX
  VSB - VISIBILITY
$$




USA.gov is the U.S. government's official web portal to all federal, state and local government web resources and services.